Regional Weather Roundup
Issued by NWS

Home | Current Version | Previous Version | Graphics & Text | Print | Product List | Glossary On
Versions: 1 2 3 4 5 6 7 8 9 10 11 12 13 14 15 16 17 18 19 20 21 22 23 24 25 26 27 28 29 30 31 32 33 34 35 36 37 38 39 40 41 42 43 44 45 46 47 48 49 50
000
ASUS45 KSLC 290610
RWRUT

UTAH REGIONAL WEATHER ROUNDUP
NATIONAL WEATHER SERVICE SALT LAKE CITY UT
1200 AM MDT SAT AUG 29 2015

UTZ001>011-023>025-290700-

NORTHERN UTAH

CITY           SKY/WX    TMP DP  RH WIND       PRES   REMARKS
BRIGHAM CITY   PTCLDY    71  44  38 CALM      30.05F
HILL AFB       CLEAR     74  38  27 E16       30.09F
LOGAN          PTCLDY    59  46  62 N6        30.09S
OGDEN          PTCLDY    73  39  29 S10       30.06F
PROVO AIRPORT  CLEAR     68  43  40 S5        30.10S
SALT LAKE CITY MOCLDY    79  38  22 S13       30.05S
VERNAL         PTCLDY    65  45  48 W6        30.19F
WENDOVER       PTCLDY    73  43  33 CALM      30.04S
HEBER CITY     CLEAR     61  41  48 CALM      30.21S
WEST JORDAN    CLEAR     72  37  28 SW6       30.09F

$$

UTZ012>022-026-027-290700-

SOUTHERN/CENTRAL UTAH

CITY           SKY/WX    TMP DP  RH WIND       PRES   REMARKS
BLANDING       CLEAR     70  28  21 N9        30.29S
BRYCE CANYON   CLEAR     53  47  79 W6        30.38F
CEDAR CITY     CLEAR     74  40  29 VRB3      30.18F
DELTA          CLEAR     73  32  22 E8        30.09S
HANKSVILLE     CLEAR     72  43  35 CALM      30.14S
MILFORD        CLEAR     71  40  32 CALM      30.12S
MOAB/CYNLANDS  CLEAR     71  41  33 CALM      30.11S
PRICE          CLEAR     65  37  35 NE8       30.23S
ST GEORGE      CLEAR     86  46  25 E5        29.97S
KANAB          CLEAR     70  54  56 N8        30.21S

$$

REGIONAL REPORTS     COLORADO/ARIZONA

CITY           SKY/WX    TMP DP  RH WIND       PRES   REMARKS
CRAIG, CO      CLEAR     55  45  68 CALM      30.31S
GRAND JUNCTION CLEAR     66  46  48 SE8       30.17R
RIFLE          CLEAR     62  46  55 E8        30.26R
MONTROSE       CLEAR     64  46  52 SE10      30.27S
CORTEZ         CLEAR     55  45  68 SE5       30.23S
PAGE, AZ       CLEAR     80  37  21 S5        30.09S
GRAND CANYON   CLEAR     54  42  64 CALM      30.30F
KINGMAN        CLEAR     79  51  37 S3        30.01S
FLAGSTAFF      CLEAR     54  50  86 CALM      30.34S

$$

REGIONAL REPORTS    NEVADA/IDAHO/WYOMING

CITY           SKY/WX    TMP DP  RH WIND       PRES   REMARKS
LAS VEGAS, NV  PTCLDY    94  52  24 SW5       29.83S HX  91
ELY            MOCLDY    61  44  53 S8        30.20S
ELKO           PTCLDY    67  47  48 NE6       30.07S
POCATELLO, ID  MOCLDY    69  41  36 VRB3      30.05F
EVANSTON, WY   CLEAR     62  37  39 SE8       30.32S
ROCK SPRINGS   PTCLDY    66  26  22 SW6       30.30S
KEMMERER       CLEAR     57  32  38 NW10      30.34S

$$



USA.gov is the U.S. government's official web portal to all federal, state and local government web resources and services.